sat.trackr.live / text

‹ back to catalog

DIRECTV 12

NORAD 36131 · 2009-075A

PAYLOAD ACTIVE UNKNOWN

§ Identity

Operator
Country
US
Launch date
2009-12-29
Launch site
TYMSC
Launch vehicle
Mass (kg)
RCS (m²)
14.11

Purposes: comms

External: N2YO · Heavens-Above · Gunter

§ Orbital elements

Epoch: 2026-05-25T00:11:15.279936Z

Period
1,436.14 min
Inclination
0.0128°
Eccentricity
0.0000327
Mean motion
1.00269038 rev/d
Perigee alt
35,786.0 km
Apogee alt
35,788.7 km
Semi-major
42,165.5 km
B*
0.0000e+0
RAAN
97.4502°
Arg perigee
275.2792°
Mean anomaly
129.9569°
Rev number
4,632

§ Raw data

DIRECTV 121 36131U 09075A   26145.00781574  .00000000  00000+0  00000+0 0  99932 36131   0.0128  97.4502 0000327 275.2792 129.9569  1.00269038 46325

JSON: /api/v1/satellites/36131 · /tle

For live sub-satellite position, see the globe view (requires WebGL).

§ Visibility from observer

Set your observer location to see the next 7 days of passes ≥ 10°. The values pass through the URL so the page stays shareable.

No JS? Fill the form by hand. The geolocation button needs JavaScript.